Retour au catalogue

DELTA 1 DEB

ActifSSO
NORAD 10830·DEBRIS·🇺🇸 United States

Lancé Jul 29, 1976 depuis Vandenberg Space Force Base

Loading…

Prochains Passages (prochaines 24 heures)

TLE

FraisSource: Space-Track

Époque: Sep 14, 2026, 11:56 UTC

1 10830U 76077CA  26257.49761968 -.00000021  00000-0  18028-3 0  9997
2 10830 101.9254 357.2023 0088557  38.6806  22.5368 12.28447572247586

Suivez DELTA 1 DEB en temps réel avec AllMySat

Download on the App Store